• In Italy
  • List of Countries
  • For 7 days
  • Water Temperature
  • Satellite Maps
  • Weather Map
  • Weather Widgets
  • user-avatar
    Login

    Hourly Weather Agra

    Today, 20 November, Monday

    Time Temperature Precipitation Wind Pressure Humidity
    00:00 +20°C° 0 mm 2 mps 747 mmHg 33%
    01:00 +19°C° 0 mm 2 mps 747 mmHg 33%
    02:00 +19°C° 0 mm 3 mps 746 mmHg 33%
    03:00 +19°C° 0 mm 3 mps 747 mmHg 32%
    04:00 +18°C° 0 mm 3 mps 747 mmHg 32%
    05:00 +18°C° 0 mm 3 mps 747 mmHg 27%
    06:00 +19°C° 0 mm 3 mps 747 mmHg 27%
    07:00 +19°C° 0 mm 3 mps 748 mmHg 27%
    08:00 +20°C° 0 mm 3 mps 748 mmHg 26%
    09:00 +22°C° 0 mm 4 mps 748 mmHg 24%
    10:00 +25°C° 0 mm 4 mps 748 mmHg 22%
    11:00 +27°C° 0 mm 4 mps 748 mmHg 20%
    12:00 +27°C° 0 mm 4 mps 748 mmHg 20%
    13:00 +28°C° 0 mm 4 mps 747 mmHg 20%
    14:00 +28°C° 0 mm 4 mps 746 mmHg 20%
    15:00 +26°C° 0 mm 3 mps 746 mmHg 21%
    16:00 +25°C° 0 mm 3 mps 746 mmHg 23%
    17:00 +23°C° 0 mm 2 mps 745 mmHg 24%
    18:00 +23°C° 0 mm 2 mps 746 mmHg 24%
    19:00 +21°C° 0 mm 2 mps 746 mmHg 24%
    20:00 +20°C° 0 mm 2 mps 746 mmHg 24%
    21:00 +19°C° 0 mm 2 mps 746 mmHg 24%
    22:00 +19°C° 0 mm 2 mps 746 mmHg 24%
    23:00 +18°C° 0 mm 2 mps 746 mmHg 24%

    Tomorrow, 21 November, Tuesday

    Time Temperature Precipitation Wind Pressure Humidity
    00:00 +18°C° 0 mm 2 mps 746 mmHg 25%
    01:00 +18°C° 0 mm 2 mps 746 mmHg 26%
    02:00 +17°C° 0 mm 2 mps 745 mmHg 26%
    03:00 +17°C° 0 mm 2 mps 745 mmHg 26%
    04:00 +16°C° 0 mm 2 mps 745 mmHg 27%
    05:00 +16°C° 0 mm 3 mps 745 mmHg 27%
    06:00 +17°C° 0 mm 3 mps 746 mmHg 27%
    07:00 +18°C° 0 mm 3 mps 746 mmHg 27%
    08:00 +19°C° 0 mm 3 mps 747 mmHg 28%
    09:00 +21°C° 0 mm 3 mps 747 mmHg 25%
    10:00 +24°C° 0 mm 3 mps 747 mmHg 21%
    11:00 +26°C° 0 mm 4 mps 747 mmHg 18%
    12:00 +27°C° 0 mm 4 mps 746 mmHg 18%
    13:00 +27°C° 0 mm 4 mps 745 mmHg 17%
    14:00 +28°C° 0 mm 4 mps 745 mmHg 16%
    15:00 +26°C° 0 mm 3 mps 745 mmHg 18%
    16:00 +25°C° 0 mm 2 mps 744 mmHg 20%
    17:00 +23°C° 0 mm 1 mps 744 mmHg 22%
    18:00 +22°C° 0 mm 1 mps 745 mmHg 23%
    19:00 +22°C° 0 mm 1 mps 745 mmHg 23%
    20:00 +21°C° 0 mm 1 mps 745 mmHg 24%
    21:00 +20°C° 0 mm 1 mps 745 mmHg 24%
    22:00 +20°C° 0 mm 1 mps 745 mmHg 24%
    23:00 +19°C° 0 mm 1 mps 745 mmHg 25%

    Day after tomorrow, 22 November, Wednesday

    Time Temperature Precipitation Wind Pressure Humidity
    00:00 +18°C° 0 mm 2 mps 745 mmHg 25%
    01:00 +17°C° 0 mm 2 mps 745 mmHg 25%
    02:00 +17°C° 0 mm 2 mps 744 mmHg 25%
    03:00 +17°C° 0 mm 2 mps 744 mmHg 25%
    04:00 +16°C° 0 mm 2 mps 744 mmHg 25%
    05:00 +16°C° 0 mm 2 mps 744 mmHg 25%
    06:00 +17°C° 0 mm 2 mps 745 mmHg 26%
    07:00 +17°C° 0 mm 2 mps 745 mmHg 26%
    08:00 +18°C° 0 mm 2 mps 746 mmHg 26%
    09:00 +20°C° 0 mm 3 mps 746 mmHg 24%
    10:00 +24°C° 0 mm 3 mps 746 mmHg 21%
    11:00 +26°C° 0 mm 3 mps 746 mmHg 19%
    12:00 +27°C° 0 mm 3 mps 746 mmHg 18%
    13:00 +27°C° 0 mm 3 mps 745 mmHg 17%
    14:00 +28°C° 0 mm 3 mps 744 mmHg 16%
    15:00 +26°C° 0 mm 3 mps 744 mmHg 18%
    16:00 +25°C° 0 mm 2 mps 744 mmHg 20%
    17:00 +23°C° 0 mm 2 mps 743 mmHg 22%
    18:00 +21°C° 0 mm 2 mps 744 mmHg 22%
    19:00 +22°C° 0 mm 1 mps 744 mmHg 22%
    20:00 +21°C° 0 mm 1 mps 745 mmHg 22%
    21:00 +19°C° 0 mm 2 mps 745 mmHg 22%
    22:00 +19°C° 0 mm 2 mps 745 mmHg 22%
    23:00 +18°C° 0 mm 2 mps 745 mmHg 23%

    23 November, Thursday

    Time Temperature Precipitation Wind Pressure Humidity
    00:00 +18°C° 0 mm 2 mps 744 mmHg 23%
    01:00 +17°C° 0 mm 2 mps 744 mmHg 23%
    02:00 +17°C° 0 mm 2 mps 744 mmHg 23%
    03:00 +16°C° 0 mm 2 mps 744 mmHg 23%
    04:00 +16°C° 0 mm 2 mps 743 mmHg 23%
    05:00 +15°C° 0 mm 2 mps 743 mmHg 23%
    06:00 +16°C° 0 mm 2 mps 744 mmHg 23%
    07:00 +17°C° 0 mm 2 mps 745 mmHg 23%
    08:00 +18°C° 0 mm 2 mps 745 mmHg 24%
    09:00 +20°C° 0 mm 2 mps 745 mmHg 21%
    10:00 +23°C° 0 mm 2 mps 745 mmHg 18%
    11:00 +26°C° 0 mm 2 mps 745 mmHg 15%
    12:00 +26°C° 0 mm 2 mps 745 mmHg 14%
    13:00 +27°C° 0 mm 3 mps 744 mmHg 13%
    14:00 +28°C° 0 mm 3 mps 744 mmHg 13%
    15:00 +26°C° 0 mm 2 mps 744 mmHg 14%
    16:00 +25°C° 0 mm 2 mps 743 mmHg 16%
    17:00 +23°C° 0 mm 1 mps 743 mmHg 18%
    18:00 +22°C° 0 mm 1 mps 744 mmHg 18%
    19:00 +22°C° 0 mm 1 mps 744 mmHg 18%
    20:00 +19°C° 0 mm 0 mps 745 mmHg 18%
    21:00 +20°C° 0 mm 1 mps 745 mmHg 19%
    22:00 +20°C° 0 mm 1 mps 745 mmHg 19%
    23:00 +20°C° 0 mm 1 mps 745 mmHg 19%

    24 November, Friday

    Time Temperature Precipitation Wind Pressure Humidity
    00:00 +19°C° 0 mm 1 mps 745 mmHg 19%
    01:00 +19°C° 0 mm 1 mps 744 mmHg 19%
    02:00 +18°C° 0 mm 1 mps 744 mmHg 20%
    03:00 +18°C° 0 mm 1 mps 744 mmHg 20%
    04:00 +18°C° 0 mm 1 mps 744 mmHg 20%
    05:00 +16°C° 0 mm 1 mps 745 mmHg 20%
    06:00 +18°C° 0 mm 1 mps 745 mmHg 20%
    07:00 +19°C° 0 mm 1 mps 746 mmHg 20%
    08:00 +20°C° 0 mm 1 mps 747 mmHg 21%
    09:00 +22°C° 0 mm 1 mps 747 mmHg 18%
    10:00 +24°C° 0 mm 1 mps 747 mmHg 16%
    11:00 +26°C° 0 mm 2 mps 747 mmHg 14%
    12:00 +27°C° 0 mm 2 mps 746 mmHg 13%
    13:00 +27°C° 0 mm 2 mps 745 mmHg 12%
    14:00 +28°C° 0 mm 2 mps 745 mmHg 11%
    15:00 +27°C° 0 mm 2 mps 745 mmHg 13%
    16:00 +25°C° 0 mm 1 mps 745 mmHg 15%
    17:00 +23°C° 0 mm 1 mps 744 mmHg 17%
    18:00 +23°C° 0 mm 1 mps 745 mmHg 17%
    19:00 +22°C° 0 mm 1 mps 745 mmHg 17%
    20:00 +19°C° 0 mm 0 mps 746 mmHg 17%
    21:00 +21°C° 0 mm 1 mps 746 mmHg 17%
    22:00 +20°C° 0 mm 1 mps 746 mmHg 17%
    23:00 +20°C° 0 mm 1 mps 746 mmHg 17%

    25 November, Saturday

    Time Temperature Precipitation Wind Pressure Humidity
    00:00 +19°C° 0 mm 1 mps 745 mmHg 17%
    01:00 +19°C° 0 mm 1 mps 745 mmHg 18%
    02:00 +18°C° 0 mm 1 mps 745 mmHg 18%
    03:00 +18°C° 0 mm 1 mps 745 mmHg 18%
    04:00 +18°C° 0 mm 1 mps 745 mmHg 17%
    05:00 +16°C° 0 mm 1 mps 745 mmHg 17%
    06:00 +18°C° 0 mm 1 mps 746 mmHg 18%
    07:00 +19°C° 0 mm 1 mps 746 mmHg 19%
    08:00 +20°C° 0 mm 1 mps 747 mmHg 19%
    09:00 +22°C° 0 mm 1 mps 747 mmHg 17%
    10:00 +24°C° 0 mm 1 mps 747 mmHg 15%
    11:00 +26°C° 0 mm 1 mps 747 mmHg 13%
    12:00 +27°C° 0 mm 1 mps 746 mmHg 12%
    13:00 +28°C° 0 mm 1 mps 746 mmHg 11%
    14:00 +29°C° 0 mm 2 mps 745 mmHg 11%
    15:00 +27°C° 0 mm 1 mps 745 mmHg 13%
    16:00 +25°C° 0 mm 1 mps 745 mmHg 14%
    17:00 +22°C° 0 mm 0 mps 745 mmHg 16%
    18:00 +21°C° 0 mm 0 mps 746 mmHg 16%
    19:00 +20°C° 0 mm 0 mps 746 mmHg 17%
    20:00 +20°C° 0 mm 0 mps 747 mmHg 17%
    21:00 +19°C° 0 mm 0 mps 747 mmHg 18%
    22:00 +19°C° 0 mm 0 mps 747 mmHg 18%
    23:00 +18°C° 0 mm 0 mps 747 mmHg 19%
    Show more